Location: Bern�tre
(50.1974°N, 2.0915°E)
Time: 08:30:37
(UTC+00:00)

Cosmos 1844 - Pass Details

Date: 18 September 2020
Orbit: 824 x 866 km, 70.9° (Epoch: 27 October)

Event Time Altitude Azimuth Distance (km) Brightness Sun altitude
Rises 19:26:49 0° 175° (S) 3,412 6.6 -14.7°
Reaches altitude 10° 19:29:31 10° 166° (SSE) 2,474 5.8 -15.1°
Maximum altitude 19:34:26 31° 106° (ESE) 1,439 4.3 -15.9°
Drops below altitude 10° 19:39:20 10° 45° (NE) 2,464 5.9 -16.6°
Sets 19:42:00 0° 36° (NE) 3,397 6.7 -17.0°
